Regional Weather Roundup
Issued by NWS State College, PA

Home | Current Version | Previous Version | Text Only | Print | Product List | Glossary Off
Versions: 1 2 3 4 5 6 7 8 9 10 11 12 13 14 15 16 17 18 19 20 21 22 23 24 25 26 27 28 29 30 31 32 33 34 35 36 37 38 39 40 41 42 43 44 45 46 47 48 49 50

000
ASUS41 KCTP 161010
RWRCTP

REGIONAL WEATHER ROUNDUP
NATIONAL WEATHER SERVICE STATE COLLEGE PA
600 AM EDT TUE SEP 16 2014

Note: "fair" indicates few or no clouds below 12,000 feet with no
significant weather and/or obstructions to visibility.

* = STATION THAT DOES NOT REPORT PRECIPITATION /E.G. RAIN...SNOW...ETC/
    THUNDER OR FOG.

PAZ002>004-007>009-013>016-020>023-029>032-161100-
WESTERN PENNSYLVANIA

CITY           SKY/WX    TMP DP  RH WIND       PRES   REMARKS
ERIE           LGT RAIN  55  51  86 SW3       30.07R
MEADVILLE      CLOUDY    51  48  89 CALM      30.08R
FRANKLIN*      CLOUDY    52  48  87 N5        30.09R
NEW CASTLE     PTSUNNY   53  52  97 CALM      30.10R
BEAVER COUNTY  NOT AVBL
BUTLER*        CLOUDY    54  52  94 W5        30.09R
PITTSBURGH INT DRIZZLE   55  54  96 N8        30.08R
PITTSBURGH     CLOUDY    56  53  90 VRB5      30.06R FOG
INDIANA*       CLOUDY    55  55 100 W5        30.09R FOG
LATROBE        CLOUDY    55  55 100 SW7       30.07R
WASHINGTON CO* CLOUDY    55  54  94 W3        30.09R
$$

PAZ004>006-010>012-017>019-024>028-033>037-041-042-045-046-049>053-161100-
CENTRAL PENNSYLVANIA

CITY           SKY/WX    TMP DP  RH WIND       PRES   REMARKS
BRADFORD       LGT RAIN  50  47  89 NW12G18   30.06R
DUBOIS         CLOUDY    53  52  96 NW7       30.04R
CLEARFIELD     CLOUDY    53  52  96 CALM      30.03S
JOHNSTOWN      CLOUDY    52  51  97 W7        30.04S
ALTOONA        CLOUDY    54  53  97 NW3       30.03F
STATE COLLEGE  DRIZZLE   54  52  94 CALM      30.02F
WILLIAMSPORT   LGT RAIN  55  52  89 W3        30.00S
SELINSGROVE    LGT RAIN  55  53  93 CALM      30.02S
FT INDIANTOWN  MOCLDY    55  55 100 SE2       30.01S
CAPITAL CITY   LGT RAIN  57  54  89 SW3       30.01S
HARRISBURG     MOCLDY    58  53  84 N3        30.00S
YORK           PTCLDY    51  50  96 CALM      30.01S FOG
$$

PAZ038>040-043-044-047-048-054-055-060>062-067>071-161100-
EASTERN PENNSYLVANIA

CITY           SKY/WX    TMP DP  RH WIND       PRES   REMARKS
SCRANTON       CLOUDY    54  51  90 E5        30.02S
MOUNT POCONO   RAIN      53  49  86 NW6       30.02S FOG
ALLENTOWN      LGT RAIN  55  51  86 NW6       30.01R
QUAKERTOWN*    CLOUDY    54  52  94 CALM      30.01R
READING        LGT RAIN  56  54  93 CALM      29.99S FOG
LANCASTER      CLOUDY    58  55  90 CALM      30.00S
COATESVILLE    CLOUDY    55  55 100 CALM      30.01S
POTTSTOWN      LGT RAIN  55  53  93 CALM      30.01R
BLUE BELL      CLOUDY    57  55  94 CALM      29.98F
DOYLESTOWN     LGT RAIN  53  53 100 N3        29.99S
WILLOW GROVE   NOT AVBL
NORTH PHILA    LGT RAIN  61  53  75 CALM      30.00F
PHILADELPHIA   RAIN      61  57  87 SE3       29.99S FOG
$$



USA.gov is the U.S. government's official web portal to all federal, state and local government web resources and services.